IRIDIUM 68 [P]

Last updated on May 30, 2018, 12:19 a.m. UTC

1 25291U 98021G   18149.57096927  .01738158 -15645-5  80005-3 0  9993
2 25291  86.3769  77.7752 0257318 115.9579 246.8453 15.77784482 54529

Satellite is not in orbit.